Year,Month,Day,Hour,Minute,Value (Times are PST for temperature in C)
2017,08,21,00,00,15.80
2017,08,21,00,01,15.80
2017,08,21,00,02,15.80
2017,08,21,00,03,15.70
2017,08,21,00,04,15.70
2017,08,21,00,05,15.70
2017,08,21,00,06,15.70
2017,08,21,00,07,15.70
2017,08,21,00,08,15.70
2017,08,21,00,09,15.70
2017,08,21,00,10,15.70
2017,08,21,00,11,15.70
2017,08,21,00,12,15.70
2017,08,21,00,13,15.70
2017,08,21,00,14,15.70
2017,08,21,00,15,15.70
2017,08,21,00,16,15.70
2017,08,21,00,17,15.70
2017,08,21,00,18,15.70
2017,08,21,00,19,15.70
2017,08,21,00,20,15.80
2017,08,21,00,21,15.80
2017,08,21,00,22,15.80
2017,08,21,00,23,15.90
2017,08,21,00,24,15.90
2017,08,21,00,25,16.00
2017,08,21,00,26,16.00
2017,08,21,00,27,16.00
2017,08,21,00,28,16.00
2017,08,21,00,29,16.00
2017,08,21,00,30,16.00
2017,08,21,00,31,16.00
2017,08,21,00,32,15.90
2017,08,21,00,33,15.90
2017,08,21,00,34,15.90
2017,08,21,00,35,15.90
2017,08,21,00,36,15.80
2017,08,21,00,37,15.80
2017,08,21,00,38,15.80
2017,08,21,00,39,15.70
2017,08,21,00,40,15.70
2017,08,21,00,41,15.60
2017,08,21,00,42,15.60
2017,08,21,00,43,15.50
2017,08,21,00,44,15.40
2017,08,21,00,45,15.40
2017,08,21,00,46,15.30
2017,08,21,00,47,15.30
2017,08,21,00,48,15.20
2017,08,21,00,49,15.20
2017,08,21,00,50,15.20
2017,08,21,00,51,15.10
2017,08,21,00,52,15.00
2017,08,21,00,53,15.00
2017,08,21,00,54,15.00
2017,08,21,00,55,15.00
2017,08,21,00,56,15.00
2017,08,21,00,57,15.00
2017,08,21,00,58,15.10
2017,08,21,00,59,15.20
2017,08,21,01,00,15.20
2017,08,21,01,01,15.30
2017,08,21,01,02,15.30
2017,08,21,01,03,15.30
2017,08,21,01,04,15.30
2017,08,21,01,05,15.40
2017,08,21,01,06,15.40
2017,08,21,01,07,15.40
2017,08,21,01,08,15.50
2017,08,21,01,09,15.50
2017,08,21,01,10,15.60
2017,08,21,01,11,15.60
2017,08,21,01,12,15.60
2017,08,21,01,13,15.60
2017,08,21,01,14,15.60
2017,08,21,01,15,15.50
2017,08,21,01,16,15.40
2017,08,21,01,17,15.40
2017,08,21,01,18,15.30
2017,08,21,01,19,15.20
2017,08,21,01,20,15.20
2017,08,21,01,21,15.10
2017,08,21,01,22,15.00
2017,08,21,01,23,15.00
2017,08,21,01,24,15.00
2017,08,21,01,25,15.00
2017,08,21,01,26,15.00
2017,08,21,01,27,15.00
2017,08,21,01,28,15.00
2017,08,21,01,29,15.00
2017,08,21,01,30,15.00
2017,08,21,01,31,15.00
2017,08,21,01,32,15.00
2017,08,21,01,33,15.00
2017,08,21,01,34,15.00
2017,08,21,01,35,15.10
2017,08,21,01,36,15.20
2017,08,21,01,37,15.30
2017,08,21,01,38,15.30
2017,08,21,01,39,15.40
2017,08,21,01,40,15.40
2017,08,21,01,41,15.50
2017,08,21,01,42,15.60
2017,08,21,01,43,15.60
2017,08,21,01,44,15.70
2017,08,21,01,45,15.70
2017,08,21,01,46,15.70
2017,08,21,01,47,15.70
2017,08,21,01,48,15.70
2017,08,21,01,49,15.70
2017,08,21,01,50,15.60
2017,08,21,01,51,15.50
2017,08,21,01,52,15.50
2017,08,21,01,53,15.40
2017,08,21,01,54,15.30
2017,08,21,01,55,15.30
2017,08,21,01,56,15.30
2017,08,21,01,57,15.20
2017,08,21,01,58,15.20
2017,08,21,01,59,15.20
2017,08,21,02,00,15.10
2017,08,21,02,01,15.10
2017,08,21,02,02,15.00
2017,08,21,02,03,15.00
2017,08,21,02,04,15.00
2017,08,21,02,05,15.00
2017,08,21,02,06,15.00
2017,08,21,02,07,15.00
2017,08,21,02,08,15.00
2017,08,21,02,09,15.00
2017,08,21,02,10,15.00
2017,08,21,02,11,15.00
2017,08,21,02,12,15.00
2017,08,21,02,13,15.00
2017,08,21,02,14,15.00
2017,08,21,02,15,15.00
2017,08,21,02,16,15.00
2017,08,21,02,17,15.00
2017,08,21,02,18,14.90
2017,08,21,02,19,14.90
2017,08,21,02,20,14.80
2017,08,21,02,21,14.70
2017,08,21,02,22,14.70
2017,08,21,02,23,14.60
2017,08,21,02,24,14.60
2017,08,21,02,25,14.50
2017,08,21,02,26,14.50
2017,08,21,02,27,14.50
2017,08,21,02,28,14.50
2017,08,21,02,29,14.40
2017,08,21,02,30,14.40
2017,08,21,02,31,14.40
2017,08,21,02,32,14.30
2017,08,21,02,33,14.30
2017,08,21,02,34,14.40
2017,08,21,02,35,14.40
2017,08,21,02,36,14.50
2017,08,21,02,37,14.50
2017,08,21,02,38,14.60
2017,08,21,02,39,14.60
2017,08,21,02,40,14.60
2017,08,21,02,41,14.60
2017,08,21,02,42,14.60
2017,08,21,02,43,14.60
2017,08,21,02,44,14.60
2017,08,21,02,45,14.50
2017,08,21,02,46,14.50
2017,08,21,02,47,14.50
2017,08,21,02,48,14.50
2017,08,21,02,49,14.50
2017,08,21,02,50,14.50
2017,08,21,02,51,14.60
2017,08,21,02,52,14.60
2017,08,21,02,53,14.60
2017,08,21,02,54,14.60
2017,08,21,02,55,14.60
2017,08,21,02,56,14.60
2017,08,21,02,57,14.60
2017,08,21,02,58,14.60
2017,08,21,02,59,14.60
2017,08,21,03,00,14.50
2017,08,21,03,01,14.50
2017,08,21,03,02,14.50
2017,08,21,03,03,14.50
2017,08,21,03,04,14.40
2017,08,21,03,05,14.40
2017,08,21,03,06,14.40
2017,08,21,03,07,14.40
2017,08,21,03,08,14.50
2017,08,21,03,09,14.50
2017,08,21,03,10,14.60
2017,08,21,03,11,14.60
2017,08,21,03,12,14.70
2017,08,21,03,13,14.70
2017,08,21,03,14,14.80
2017,08,21,03,15,14.80
2017,08,21,03,16,14.90
2017,08,21,03,17,14.90
2017,08,21,03,18,15.00
2017,08,21,03,19,15.00
2017,08,21,03,20,15.00
2017,08,21,03,21,15.00
2017,08,21,03,22,15.10
2017,08,21,03,23,15.20
2017,08,21,03,24,15.20
2017,08,21,03,25,15.20
2017,08,21,03,26,15.20
2017,08,21,03,27,15.10
2017,08,21,03,28,15.00
2017,08,21,03,29,15.00
2017,08,21,03,30,15.00
2017,08,21,03,31,15.00
2017,08,21,03,32,15.00
2017,08,21,03,33,15.00
2017,08,21,03,34,15.00
2017,08,21,03,35,15.00
2017,08,21,03,36,15.00
2017,08,21,03,37,15.00
2017,08,21,03,38,15.00
2017,08,21,03,39,15.00
2017,08,21,03,40,14.90
2017,08,21,03,41,14.90
2017,08,21,03,42,14.90
2017,08,21,03,43,14.90
2017,08,21,03,44,14.90
2017,08,21,03,45,14.90
2017,08,21,03,46,14.90
2017,08,21,03,47,14.90
2017,08,21,03,48,14.90
2017,08,21,03,49,14.90
2017,08,21,03,50,14.90
2017,08,21,03,51,14.80
2017,08,21,03,52,14.70
2017,08,21,03,53,14.60
2017,08,21,03,54,14.50
2017,08,21,03,55,14.40
2017,08,21,03,56,14.30
2017,08,21,03,57,14.20
2017,08,21,03,58,14.20
2017,08,21,03,59,14.10
2017,08,21,04,00,14.00
2017,08,21,04,01,13.90
2017,08,21,04,02,13.80
2017,08,21,04,03,13.80
2017,08,21,04,04,13.80
2017,08,21,04,05,13.70
2017,08,21,04,06,13.60
2017,08,21,04,07,13.50
2017,08,21,04,08,13.50
2017,08,21,04,09,13.40
2017,08,21,04,10,13.30
2017,08,21,04,11,13.30
2017,08,21,04,12,13.30
2017,08,21,04,13,13.20
2017,08,21,04,14,13.20
2017,08,21,04,15,13.30
2017,08,21,04,16,13.30
2017,08,21,04,17,13.30
2017,08,21,04,18,13.30
2017,08,21,04,19,13.30
2017,08,21,04,20,13.30
2017,08,21,04,21,13.30
2017,08,21,04,22,13.30
2017,08,21,04,23,13.30
2017,08,21,04,24,13.30
2017,08,21,04,25,13.30
2017,08,21,04,26,13.30
2017,08,21,04,27,13.30
2017,08,21,04,28,13.30
2017,08,21,04,29,13.30
2017,08,21,04,30,13.30
2017,08,21,04,31,13.30
2017,08,21,04,32,13.20
2017,08,21,04,33,13.20
2017,08,21,04,34,13.20
2017,08,21,04,35,13.20
2017,08,21,04,36,13.10
2017,08,21,04,37,13.10
2017,08,21,04,38,13.10
2017,08,21,04,39,13.10
2017,08,21,04,40,13.10
2017,08,21,04,41,13.10
2017,08,21,04,42,13.10
2017,08,21,04,43,13.10
2017,08,21,04,44,13.10
2017,08,21,04,45,13.10
2017,08,21,04,46,13.10
2017,08,21,04,47,13.10
2017,08,21,04,48,13.10
2017,08,21,04,49,13.00
2017,08,21,04,50,13.00
2017,08,21,04,51,13.00
2017,08,21,04,52,13.00
2017,08,21,04,53,13.00
2017,08,21,04,54,13.00
2017,08,21,04,55,12.90
2017,08,21,04,56,12.90
2017,08,21,04,57,12.90
2017,08,21,04,58,12.90
2017,08,21,04,59,12.90
2017,08,21,05,00,12.90
2017,08,21,05,01,12.90
2017,08,21,05,02,12.90
2017,08,21,05,03,12.90
2017,08,21,05,04,12.90
2017,08,21,05,05,12.90
2017,08,21,05,06,12.90
2017,08,21,05,07,12.80
2017,08,21,05,08,12.80
2017,08,21,05,09,12.80
2017,08,21,05,10,12.80
2017,08,21,05,11,12.80
2017,08,21,05,12,12.80
2017,08,21,05,13,12.80
2017,08,21,05,14,12.80
2017,08,21,05,15,12.70
2017,08,21,05,16,12.70
2017,08,21,05,17,12.70
2017,08,21,05,18,12.70
2017,08,21,05,19,12.70
2017,08,21,05,20,12.70
2017,08,21,05,21,12.70
2017,08,21,05,22,12.70
2017,08,21,05,23,12.70
2017,08,21,05,24,12.70
2017,08,21,05,25,12.70
2017,08,21,05,26,12.70
2017,08,21,05,27,12.60
2017,08,21,05,28,12.60
2017,08,21,05,29,12.60
2017,08,21,05,30,12.60
2017,08,21,05,31,12.60
2017,08,21,05,32,12.60
2017,08,21,05,33,12.60
2017,08,21,05,34,12.70
2017,08,21,05,35,12.70
2017,08,21,05,36,12.70
2017,08,21,05,37,12.70
2017,08,21,05,38,12.80
2017,08,21,05,39,12.80
2017,08,21,05,40,12.80
2017,08,21,05,41,12.80
2017,08,21,05,42,12.80
2017,08,21,05,43,12.70
2017,08,21,05,44,12.70
2017,08,21,05,45,12.70
2017,08,21,05,46,12.70
2017,08,21,05,47,12.60
2017,08,21,05,48,12.60
2017,08,21,05,49,12.60
2017,08,21,05,50,12.60
2017,08,21,05,51,12.60
2017,08,21,05,52,12.60
2017,08,21,05,53,12.50
2017,08,21,05,54,12.50
2017,08,21,05,55,12.50
2017,08,21,05,56,12.50
2017,08,21,05,57,12.40
2017,08,21,05,58,12.40
2017,08,21,05,59,12.40
2017,08,21,06,00,12.40
2017,08,21,06,01,12.40
2017,08,21,06,02,12.40
2017,08,21,06,03,12.40
2017,08,21,06,04,12.40
2017,08,21,06,05,12.40
2017,08,21,06,06,12.40
2017,08,21,06,07,12.40
2017,08,21,06,08,12.40
2017,08,21,06,09,12.40
2017,08,21,06,10,12.40
2017,08,21,06,11,12.40
2017,08,21,06,12,12.40
2017,08,21,06,13,12.40
2017,08,21,06,14,12.40
2017,08,21,06,15,12.40
2017,08,21,06,16,12.40
2017,08,21,06,17,12.40
2017,08,21,06,18,12.40
2017,08,21,06,19,12.40
2017,08,21,06,20,12.40
2017,08,21,06,21,12.40
2017,08,21,06,22,12.40
2017,08,21,06,23,12.40
2017,08,21,06,24,12.40
2017,08,21,06,25,12.40
2017,08,21,06,26,12.40
2017,08,21,06,27,12.40
2017,08,21,06,28,12.40
2017,08,21,06,29,12.40
2017,08,21,06,30,12.40
2017,08,21,06,31,12.40
2017,08,21,06,32,12.40
2017,08,21,06,33,12.50
2017,08,21,06,34,12.50
2017,08,21,06,35,12.50
2017,08,21,06,36,12.50
2017,08,21,06,37,12.50
2017,08,21,06,38,12.50
2017,08,21,06,39,12.50
2017,08,21,06,40,12.50
2017,08,21,06,41,12.60
2017,08,21,06,42,12.60
2017,08,21,06,43,12.50
2017,08,21,06,44,12.50
2017,08,21,06,45,12.50
2017,08,21,06,46,12.50
2017,08,21,06,47,12.50
2017,08,21,06,48,12.50
2017,08,21,06,49,12.60
2017,08,21,06,50,12.60
2017,08,21,06,51,12.60
2017,08,21,06,52,12.60
2017,08,21,06,53,12.60
2017,08,21,06,54,12.60
2017,08,21,06,55,12.60
2017,08,21,06,56,12.60
2017,08,21,06,57,12.70
2017,08,21,06,58,12.70
2017,08,21,06,59,12.70
2017,08,21,07,00,12.70
2017,08,21,07,01,12.70
2017,08,21,07,02,12.80
2017,08,21,07,03,12.80
2017,08,21,07,04,12.80
2017,08,21,07,05,12.90
2017,08,21,07,06,12.90
2017,08,21,07,07,12.90
2017,08,21,07,08,12.90
2017,08,21,07,09,13.00
2017,08,21,07,10,13.00
2017,08,21,07,11,13.10
2017,08,21,07,12,13.10
2017,08,21,07,13,13.20
2017,08,21,07,14,13.20
2017,08,21,07,15,13.20
2017,08,21,07,16,13.20
2017,08,21,07,17,13.30
2017,08,21,07,18,13.30
2017,08,21,07,19,13.30
2017,08,21,07,20,13.30
2017,08,21,07,21,13.30
2017,08,21,07,22,13.40
2017,08,21,07,23,13.40
2017,08,21,07,24,13.40
2017,08,21,07,25,13.50
2017,08,21,07,26,13.50
2017,08,21,07,27,13.60
2017,08,21,07,28,13.60
2017,08,21,07,29,13.70
2017,08,21,07,30,13.70
2017,08,21,07,31,13.70
2017,08,21,07,32,13.80
2017,08,21,07,33,13.80
2017,08,21,07,34,13.90
2017,08,21,07,35,13.90
2017,08,21,07,36,14.00
2017,08,21,07,37,14.00
2017,08,21,07,38,14.10
2017,08,21,07,39,14.10
2017,08,21,07,40,14.20
2017,08,21,07,41,14.20
2017,08,21,07,42,14.30
2017,08,21,07,43,14.40
2017,08,21,07,44,14.50
2017,08,21,07,45,14.50
2017,08,21,07,46,14.60
2017,08,21,07,47,14.70
2017,08,21,07,48,14.80
2017,08,21,07,49,14.90
2017,08,21,07,50,15.00
2017,08,21,07,51,15.00
2017,08,21,07,52,15.00
2017,08,21,07,53,15.20
2017,08,21,07,54,15.30
2017,08,21,07,55,15.40
2017,08,21,07,56,15.50
2017,08,21,07,57,15.60
2017,08,21,07,58,15.70
2017,08,21,07,59,15.80
2017,08,21,08,00,15.90
2017,08,21,08,01,16.00
2017,08,21,08,02,16.10
2017,08,21,08,03,16.20
2017,08,21,08,04,16.30
2017,08,21,08,05,16.40
2017,08,21,08,06,16.50
2017,08,21,08,07,16.60
2017,08,21,08,08,16.80
2017,08,21,08,09,16.90
2017,08,21,08,10,17.00
2017,08,21,08,11,17.20
2017,08,21,08,12,17.30
2017,08,21,08,13,17.40
2017,08,21,08,14,17.50
2017,08,21,08,15,17.60
2017,08,21,08,16,17.70
2017,08,21,08,17,17.80
2017,08,21,08,18,17.90
2017,08,21,08,19,18.00
2017,08,21,08,20,18.20
2017,08,21,08,21,18.30
2017,08,21,08,22,18.40
2017,08,21,08,23,18.50
2017,08,21,08,24,18.60
2017,08,21,08,25,18.70
2017,08,21,08,26,18.80
2017,08,21,08,27,18.90
2017,08,21,08,28,19.00
2017,08,21,08,29,19.10
2017,08,21,08,30,19.10
2017,08,21,08,31,19.20
2017,08,21,08,32,19.20
2017,08,21,08,33,19.20
2017,08,21,08,34,19.30
2017,08,21,08,35,19.40
2017,08,21,08,36,19.40
2017,08,21,08,37,19.50
2017,08,21,08,38,19.50
2017,08,21,08,39,19.60
2017,08,21,08,40,19.60
2017,08,21,08,41,19.70
2017,08,21,08,42,19.70
2017,08,21,08,43,19.80
2017,08,21,08,44,19.80
2017,08,21,08,45,19.90
2017,08,21,08,46,19.90
2017,08,21,08,47,19.90
2017,08,21,08,48,19.90
2017,08,21,08,49,19.80
2017,08,21,08,50,19.80
2017,08,21,08,51,19.70
2017,08,21,08,52,19.70
2017,08,21,08,53,19.70
2017,08,21,08,54,19.60
2017,08,21,08,55,19.60
2017,08,21,08,56,19.50
2017,08,21,08,57,19.50
2017,08,21,08,58,19.50
2017,08,21,08,59,19.60
2017,08,21,09,00,19.60
2017,08,21,09,01,19.60
2017,08,21,09,02,19.60
2017,08,21,09,03,19.70
2017,08,21,09,04,19.70
2017,08,21,09,05,19.80
2017,08,21,09,06,19.90
2017,08,21,09,07,19.90
2017,08,21,09,08,19.90
2017,08,21,09,09,20.00
2017,08,21,09,10,20.00
2017,08,21,09,11,20.10
2017,08,21,09,12,20.10
2017,08,21,09,13,20.10
2017,08,21,09,14,20.20
2017,08,21,09,15,20.20
2017,08,21,09,16,20.20
2017,08,21,09,17,20.20
2017,08,21,09,18,20.20
2017,08,21,09,19,20.20
2017,08,21,09,20,20.30
2017,08,21,09,21,20.30
2017,08,21,09,22,20.40
2017,08,21,09,23,20.40
2017,08,21,09,24,20.50
2017,08,21,09,25,20.50
2017,08,21,09,26,20.50
2017,08,21,09,27,20.50
2017,08,21,09,28,20.60
2017,08,21,09,29,20.70
2017,08,21,09,30,20.70
2017,08,21,09,31,20.80
2017,08,21,09,32,20.80
2017,08,21,09,33,20.80
2017,08,21,09,34,20.80
2017,08,21,09,35,20.80
2017,08,21,09,36,20.80
2017,08,21,09,37,20.80
2017,08,21,09,38,20.90
2017,08,21,09,39,20.90
2017,08,21,09,40,20.90
2017,08,21,09,41,20.90
2017,08,21,09,42,20.80
2017,08,21,09,43,20.80
2017,08,21,09,44,20.70
2017,08,21,09,45,20.70
2017,08,21,09,46,20.70
2017,08,21,09,47,20.60
2017,08,21,09,48,20.60
2017,08,21,09,49,20.50
2017,08,21,09,50,20.40
2017,08,21,09,51,20.40
2017,08,21,09,52,20.40
2017,08,21,09,53,20.50
2017,08,21,09,54,20.40
2017,08,21,09,55,20.40
2017,08,21,09,56,20.30
2017,08,21,09,57,20.30
2017,08,21,09,58,20.30
2017,08,21,09,59,20.20
2017,08,21,10,00,20.20
2017,08,21,10,01,20.20
2017,08,21,10,02,20.10
2017,08,21,10,03,20.00
2017,08,21,10,04,19.90
2017,08,21,10,05,19.80
2017,08,21,10,06,19.80
2017,08,21,10,07,19.80
2017,08,21,10,08,19.80
2017,08,21,10,09,19.70
2017,08,21,10,10,19.70
2017,08,21,10,11,19.60
2017,08,21,10,12,19.60
2017,08,21,10,13,19.50
2017,08,21,10,14,19.50
2017,08,21,10,15,19.40
2017,08,21,10,16,19.40
2017,08,21,10,17,19.30
2017,08,21,10,18,19.30
2017,08,21,10,19,19.30
2017,08,21,10,20,19.20
2017,08,21,10,21,19.20
2017,08,21,10,22,19.10
2017,08,21,10,23,19.10
2017,08,21,10,24,19.00
2017,08,21,10,25,19.00
2017,08,21,10,26,18.90
2017,08,21,10,27,18.90
2017,08,21,10,28,18.90
2017,08,21,10,29,18.90
2017,08,21,10,30,18.90
2017,08,21,10,31,18.90
2017,08,21,10,32,18.90
2017,08,21,10,33,18.90
2017,08,21,10,34,18.90
2017,08,21,10,35,19.00
2017,08,21,10,36,19.00
2017,08,21,10,37,19.00
2017,08,21,10,38,19.00
2017,08,21,10,39,19.00
2017,08,21,10,40,19.00
2017,08,21,10,41,19.00
2017,08,21,10,42,19.00
2017,08,21,10,43,18.90
2017,08,21,10,44,18.90
2017,08,21,10,45,18.90
2017,08,21,10,46,18.90
2017,08,21,10,47,18.90
2017,08,21,10,48,18.90
2017,08,21,10,49,18.90
2017,08,21,10,50,19.00
2017,08,21,10,51,19.00
2017,08,21,10,52,19.10
2017,08,21,10,53,19.10
2017,08,21,10,54,19.10
2017,08,21,10,55,19.20
2017,08,21,10,56,19.20
2017,08,21,10,57,19.30
2017,08,21,10,58,19.30
2017,08,21,10,59,19.30
2017,08,21,11,00,19.40
2017,08,21,11,01,19.50
2017,08,21,11,02,19.50
2017,08,21,11,03,19.50
2017,08,21,11,04,19.60
2017,08,21,11,05,19.60
2017,08,21,11,06,19.70
2017,08,21,11,07,19.70
2017,08,21,11,08,19.70
2017,08,21,11,09,19.80
2017,08,21,11,10,19.80
2017,08,21,11,11,19.80
2017,08,21,11,12,19.90
2017,08,21,11,13,19.90
2017,08,21,11,14,19.90
2017,08,21,11,15,20.00
2017,08,21,11,16,20.00
2017,08,21,11,17,20.00
2017,08,21,11,18,20.10
2017,08,21,11,19,20.10
2017,08,21,11,20,20.20
2017,08,21,11,21,20.20
2017,08,21,11,22,20.30
2017,08,21,11,23,20.40
2017,08,21,11,24,20.50
2017,08,21,11,25,20.60
2017,08,21,11,26,20.60
2017,08,21,11,27,20.70
2017,08,21,11,28,20.80
2017,08,21,11,29,20.90
2017,08,21,11,30,21.00
2017,08,21,11,31,21.10
2017,08,21,11,32,21.20
2017,08,21,11,33,21.20
2017,08,21,11,34,21.30
2017,08,21,11,35,21.40
2017,08,21,11,36,21.50
2017,08,21,11,37,21.60
2017,08,21,11,38,21.70
2017,08,21,11,39,21.80
2017,08,21,11,40,21.80
2017,08,21,11,41,21.90
2017,08,21,11,42,21.90
2017,08,21,11,43,22.00
2017,08,21,11,44,22.10
2017,08,21,11,45,22.20
2017,08,21,11,46,22.20
2017,08,21,11,47,22.20
2017,08,21,11,48,22.20
2017,08,21,11,49,22.10
2017,08,21,11,50,22.00
2017,08,21,11,51,21.90
2017,08,21,11,52,21.80
2017,08,21,11,53,21.80
2017,08,21,11,54,21.80
2017,08,21,11,55,21.80
2017,08,21,11,56,21.90
2017,08,21,11,57,21.90
2017,08,21,11,58,21.90
2017,08,21,11,59,21.90
2017,08,21,12,00,21.90
2017,08,21,12,01,21.90
2017,08,21,12,02,21.90
2017,08,21,12,03,21.90
2017,08,21,12,04,21.90
2017,08,21,12,05,21.80
2017,08,21,12,06,21.80
2017,08,21,12,07,21.80
2017,08,21,12,08,21.80
2017,08,21,12,09,21.80
2017,08,21,12,10,21.90
2017,08,21,12,11,22.00
2017,08,21,12,12,22.10
2017,08,21,12,13,22.10
2017,08,21,12,14,22.00
2017,08,21,12,15,22.00
2017,08,21,12,16,22.00
2017,08,21,12,17,21.90
2017,08,21,12,18,21.90
2017,08,21,12,19,22.00
2017,08,21,12,20,22.00
2017,08,21,12,21,22.00
2017,08,21,12,22,22.00
2017,08,21,12,23,22.10
2017,08,21,12,24,22.30
2017,08,21,12,25,22.30
2017,08,21,12,26,22.40
2017,08,21,12,27,22.30
2017,08,21,12,28,22.40
2017,08,21,12,29,22.40
2017,08,21,12,30,22.50
2017,08,21,12,31,22.70
2017,08,21,12,32,22.80
2017,08,21,12,33,22.90
2017,08,21,12,34,23.10
2017,08,21,12,35,23.20
2017,08,21,12,36,23.30
2017,08,21,12,37,23.40
2017,08,21,12,38,23.40
2017,08,21,12,39,23.30
2017,08,21,12,40,23.30
2017,08,21,12,41,23.30
2017,08,21,12,42,23.30
2017,08,21,12,43,23.30
2017,08,21,12,44,23.30
2017,08,21,12,45,23.20
2017,08,21,12,46,23.20
2017,08,21,12,47,23.20
2017,08,21,12,48,23.20
2017,08,21,12,49,23.20
2017,08,21,12,50,23.10
2017,08,21,12,51,23.20
2017,08,21,12,52,23.20
2017,08,21,12,53,23.20
2017,08,21,12,54,23.20
2017,08,21,12,55,23.10
2017,08,21,12,56,23.10
2017,08,21,12,57,23.00
2017,08,21,12,58,23.00
2017,08,21,12,59,23.00
2017,08,21,13,00,23.10
2017,08,21,13,01,23.10
2017,08,21,13,02,23.10
2017,08,21,13,03,23.10
2017,08,21,13,04,23.20
2017,08,21,13,05,23.20
2017,08,21,13,06,23.30
2017,08,21,13,07,23.30
2017,08,21,13,08,23.40
2017,08,21,13,09,23.40
2017,08,21,13,10,23.30
2017,08,21,13,11,23.30
2017,08,21,13,12,23.40
2017,08,21,13,13,23.50
2017,08,21,13,14,23.60
2017,08,21,13,15,23.50
2017,08,21,13,16,23.40
2017,08,21,13,17,23.40
2017,08,21,13,18,23.40
2017,08,21,13,19,23.30
2017,08,21,13,20,23.30
2017,08,21,13,21,23.30
2017,08,21,13,22,23.30
2017,08,21,13,23,23.40
2017,08,21,13,24,23.30
2017,08,21,13,25,23.10
2017,08,21,13,26,22.90
2017,08,21,13,27,22.80
2017,08,21,13,28,22.70
2017,08,21,13,29,22.50
2017,08,21,13,30,22.40
2017,08,21,13,31,22.40
2017,08,21,13,32,22.40
2017,08,21,13,33,22.40
2017,08,21,13,34,22.40
2017,08,21,13,35,22.50
2017,08,21,13,36,22.50
2017,08,21,13,37,22.70
2017,08,21,13,38,22.80
2017,08,21,13,39,22.90
2017,08,21,13,40,23.00
2017,08,21,13,41,23.00
2017,08,21,13,42,23.00
2017,08,21,13,43,23.10
2017,08,21,13,44,23.10
2017,08,21,13,45,23.10
2017,08,21,13,46,23.20
2017,08,21,13,47,23.30
2017,08,21,13,48,23.30
2017,08,21,13,49,23.30
2017,08,21,13,50,23.40
2017,08,21,13,51,23.50
2017,08,21,13,52,23.50
2017,08,21,13,53,23.60
2017,08,21,13,54,23.70
2017,08,21,13,55,23.80
2017,08,21,13,56,23.90
2017,08,21,13,57,24.00
2017,08,21,13,58,24.10
2017,08,21,13,59,24.10
2017,08,21,14,00,24.10
2017,08,21,14,01,24.20
2017,08,21,14,02,24.30
2017,08,21,14,03,24.30
2017,08,21,14,04,24.30
2017,08,21,14,05,24.30
2017,08,21,14,06,24.30
2017,08,21,14,07,24.30
2017,08,21,14,08,24.10
2017,08,21,14,09,24.10
2017,08,21,14,10,24.10
2017,08,21,14,11,24.00
2017,08,21,14,12,23.90
2017,08,21,14,13,23.90
2017,08,21,14,14,23.80
2017,08,21,14,15,23.80
2017,08,21,14,16,23.80
2017,08,21,14,17,24.00
2017,08,21,14,18,24.10
2017,08,21,14,19,24.10
2017,08,21,14,20,24.10
2017,08,21,14,21,24.20
2017,08,21,14,22,24.30
2017,08,21,14,23,24.40
2017,08,21,14,24,24.50
2017,08,21,14,25,24.50
2017,08,21,14,26,24.30
2017,08,21,14,27,24.30
2017,08,21,14,28,24.10
2017,08,21,14,29,24.00
2017,08,21,14,30,24.00
2017,08,21,14,31,24.00
2017,08,21,14,32,23.90
2017,08,21,14,33,23.90
2017,08,21,14,34,23.80
2017,08,21,14,35,23.90
2017,08,21,14,36,23.90
2017,08,21,14,37,23.90
2017,08,21,14,38,24.00
2017,08,21,14,39,24.10
2017,08,21,14,40,24.20
2017,08,21,14,41,24.20
2017,08,21,14,42,24.30
2017,08,21,14,43,24.40
2017,08,21,14,44,24.40
2017,08,21,14,45,24.50
2017,08,21,14,46,24.60
2017,08,21,14,47,24.60
2017,08,21,14,48,24.70
2017,08,21,14,49,24.70
2017,08,21,14,50,24.60
2017,08,21,14,51,24.70
2017,08,21,14,52,24.70
2017,08,21,14,53,24.80
2017,08,21,14,54,24.80
2017,08,21,14,55,24.70
2017,08,21,14,56,24.60
2017,08,21,14,57,24.50
2017,08,21,14,58,24.40
2017,08,21,14,59,24.30
2017,08,21,15,00,24.30
2017,08,21,15,01,24.30
2017,08,21,15,02,24.40
2017,08,21,15,03,24.30
2017,08,21,15,04,24.30
2017,08,21,15,05,24.30
2017,08,21,15,06,24.40
2017,08,21,15,07,24.50
2017,08,21,15,08,24.60
2017,08,21,15,09,24.50
2017,08,21,15,10,24.30
2017,08,21,15,11,24.30
2017,08,21,15,12,24.20
2017,08,21,15,13,24.20
2017,08,21,15,14,24.10
2017,08,21,15,15,24.10
2017,08,21,15,16,24.10
2017,08,21,15,17,24.20
2017,08,21,15,18,24.20
2017,08,21,15,19,24.20
2017,08,21,15,20,24.10
2017,08,21,15,21,24.10
2017,08,21,15,22,24.10
2017,08,21,15,23,24.10
2017,08,21,15,24,24.10
2017,08,21,15,25,24.10
2017,08,21,15,26,24.10
2017,08,21,15,27,24.20
2017,08,21,15,28,24.30
2017,08,21,15,29,24.30
2017,08,21,15,30,24.40
2017,08,21,15,31,24.50
2017,08,21,15,32,24.50
2017,08,21,15,33,24.60
2017,08,21,15,34,24.60
2017,08,21,15,35,24.60
2017,08,21,15,36,24.60
2017,08,21,15,37,24.70
2017,08,21,15,38,24.70
2017,08,21,15,39,24.80
2017,08,21,15,40,24.90
2017,08,21,15,41,24.90
2017,08,21,15,42,24.90
2017,08,21,15,43,24.80
2017,08,21,15,44,24.70
2017,08,21,15,45,24.50
2017,08,21,15,46,24.40
2017,08,21,15,47,24.40
2017,08,21,15,48,24.30
2017,08,21,15,49,24.40
2017,08,21,15,50,24.40
2017,08,21,15,51,24.40
2017,08,21,15,52,24.40
2017,08,21,15,53,24.50
2017,08,21,15,54,24.50
2017,08,21,15,55,24.60
2017,08,21,15,56,24.60
2017,08,21,15,57,24.60
2017,08,21,15,58,24.60
2017,08,21,15,59,24.70
2017,08,21,16,00,24.70
2017,08,21,16,01,24.80
2017,08,21,16,02,24.90
2017,08,21,16,03,25.00
2017,08,21,16,04,25.10
2017,08,21,16,05,25.20
2017,08,21,16,06,25.20
2017,08,21,16,07,25.20
2017,08,21,16,08,25.30
2017,08,21,16,09,25.20
2017,08,21,16,10,25.20
2017,08,21,16,11,25.30
2017,08,21,16,12,25.40
2017,08,21,16,13,25.40
2017,08,21,16,14,25.40
2017,08,21,16,15,25.40
2017,08,21,16,16,25.40
2017,08,21,16,17,25.40
2017,08,21,16,18,25.40
2017,08,21,16,19,25.40
2017,08,21,16,20,25.40
2017,08,21,16,21,25.40
2017,08,21,16,22,25.40
2017,08,21,16,23,25.40
2017,08,21,16,24,25.40
2017,08,21,16,25,25.40
2017,08,21,16,26,25.40
2017,08,21,16,27,25.30
2017,08,21,16,28,25.30
2017,08,21,16,29,25.40
2017,08,21,16,30,25.40
2017,08,21,16,31,25.40
2017,08,21,16,32,25.40
2017,08,21,16,33,25.50
2017,08,21,16,34,25.60
2017,08,21,16,35,25.60
2017,08,21,16,36,25.60
2017,08,21,16,37,25.60
2017,08,21,16,38,25.60
2017,08,21,16,39,25.60
2017,08,21,16,40,25.60
2017,08,21,16,41,25.60
2017,08,21,16,42,25.60
2017,08,21,16,43,25.60
2017,08,21,16,44,25.70
2017,08,21,16,45,25.80
2017,08,21,16,46,25.80
2017,08,21,16,47,25.80
2017,08,21,16,48,25.80
2017,08,21,16,49,25.70
2017,08,21,16,50,25.80
2017,08,21,16,51,25.80
2017,08,21,16,52,25.80
2017,08,21,16,53,25.80
2017,08,21,16,54,25.90
2017,08,21,16,55,25.90
2017,08,21,16,56,25.90
2017,08,21,16,57,26.00
2017,08,21,16,58,26.00
2017,08,21,16,59,26.00
2017,08,21,17,00,26.10
2017,08,21,17,01,26.10
2017,08,21,17,02,26.10
2017,08,21,17,03,26.10
2017,08,21,17,04,26.10
2017,08,21,17,05,26.10
2017,08,21,17,06,26.00
2017,08,21,17,07,26.00
2017,08,21,17,08,26.00
2017,08,21,17,09,26.10
2017,08,21,17,10,26.10
2017,08,21,17,11,26.10
2017,08,21,17,12,26.10
2017,08,21,17,13,26.20
2017,08,21,17,14,26.30
2017,08,21,17,15,26.20
2017,08,21,17,16,26.10
2017,08,21,17,17,26.10
2017,08,21,17,18,26.00
2017,08,21,17,19,26.00